Yakima, WA

7:26 PM PST on December 12, 2017 (GMT -0800)
Yakima Air Term-McAllister

Weather History for KYKM - August, 2013

Change the Weather History Date:

Sunday, August 11, 2013

  Actual Average Record
Temperature  
Mean Temperature 75 °F 71 °F  
Max Temperature 88 °F 88 °F 108 °F (1971)
Min Temperature 62 °F 53 °F 43 °F (1957)
Degree Days  
Heating Degree Days 0 1  
Month to date heating degree days 0 4  
Since 1 June heating degree days 39 123  
Since 1 July heating degree days 0 25  
Cooling Degree Days 10 6  
Month to date cooling degree days 129 75  
Year to date cooling degree days 692 355  
Since 1 June cooling degree days 640 335  
Growing Degree Days 26 (Base 50)    
Moisture  
Dew Point 56 °F    
Average Humidity 55    
Maximum Humidity 84    
Minimum Humidity 26    
Precipitation  
Precipitation 0.00 in 0.01 in 0.04 in (1983)
Month to date precipitation T 0.08  
Year to date precipitation 4.17 4.59  
Snow  
Snow 0.00 in 0.00 in 0.00 in (2002)
Month to date snowfall 0.0 0.0  
Year to date snowfall 1.1 8.6  
Since 1 July snowfall 0.0 0.0  
Snow Depth 0.00 in    
Sea Level Pressure  
Sea Level Pressure 29.93 in    
Wind  
Wind Speed 5 mph (WSW)    
Max Wind Speed 13 mph    
Max Gust Speed 15 mph    
Visibility 10 miles    
Events      
T = Trace of Precipitation, MM = Missing Value Source: NWS Daily Summary

Daily Weather History Graph

Daily Weather History Graph

Search for Another Location

Airport or City:

Trip Planner

Search our weather history database for the weather conditions in past years. The results will help you decide how hot, cold, wet, or windy it might be!

Date:

Astronomy

Aug. 11, 2013 Rise Set
Actual Time 5:55 AM PDT 8:17 PM PDT
Civil Twilight 5:22 AM PDT 8:51 PM PDT
Nautical Twilight 4:40 AM PDT 9:33 PM PDT
Astronomical Twilight 3:52 AM PDT 10:20 PM PDT
Moon 11:11 AM PDT (8/11) 10:13 PM PDT (8/11)
Length of Visible Light 15h 29m
Length of Day
14h 22m
Waxing Crescent, 23% of the Moon is Illuminated
Aug 11
Waxing Crescent
Aug 14
First Quarter
Aug 20
Full
Aug 28
Last Quarter
Sep 5
New

Hourly Weather History & Observations

Time (PDT) Temp. Heat Index Dew Point Humidity Pressure Visibility Wind Dir Wind Speed Gust Speed Precip Events Conditions
12:53 AM 71.1 °F - 59.0 °F 66% 29.91 in 10.0 mi WSW 3.5 mph - N/A   Clear
1:53 AM 68.0 °F - 57.9 °F 70% 29.90 in 10.0 mi West 3.5 mph - N/A   Clear
2:53 AM 66.0 °F - 57.9 °F 75% 29.93 in 10.0 mi WSW 4.6 mph - N/A   Clear
3:53 AM 63.0 °F - 57.0 °F 81% 29.93 in 10.0 mi WNW 3.5 mph - N/A   Scattered Clouds
4:53 AM 64.0 °F - 57.0 °F 78% 29.96 in 10.0 mi West 4.6 mph - N/A   Scattered Clouds
5:53 AM 66.0 °F - 57.9 °F 75% 29.96 in 10.0 mi Calm Calm - N/A   Scattered Clouds
6:53 AM 68.0 °F - 59.0 °F 73% 29.97 in 10.0 mi WSW 5.8 mph - N/A   Mostly Cloudy
7:53 AM 72.0 °F - 59.0 °F 64% 29.97 in 10.0 mi WNW 4.6 mph - N/A   Mostly Cloudy
8:53 AM 75.0 °F - 57.0 °F 53% 29.97 in 10.0 mi Calm Calm - N/A   Clear
9:53 AM 78.1 °F - 57.0 °F 48% 29.97 in 10.0 mi Calm Calm - N/A   Partly Cloudy
10:53 AM 81.0 °F 80.8 °F 55.9 °F 42% 29.95 in 10.0 mi Calm Calm - N/A   Scattered Clouds
11:53 AM 84.9 °F 83.7 °F 55.9 °F 37% 29.94 in 10.0 mi ENE 5.8 mph - N/A   Scattered Clouds
12:53 PM 82.9 °F 82.1 °F 55.9 °F 39% 29.94 in 10.0 mi ESE 4.6 mph - N/A   Clear
1:53 PM 84.9 °F 83.7 °F 55.9 °F 37% 29.92 in 10.0 mi Variable 5.8 mph - N/A   Scattered Clouds
2:53 PM 87.1 °F 85.1 °F 54.0 °F 32% 29.91 in 10.0 mi South 4.6 mph - N/A   Scattered Clouds
3:53 PM 87.1 °F 84.9 °F 53.1 °F 31% 29.89 in 10.0 mi South 5.8 mph - N/A   Scattered Clouds
4:53 PM 86.0 °F 84.2 °F 54.0 °F 33% 29.87 in 10.0 mi SSE 5.8 mph - N/A   Scattered Clouds
5:53 PM 87.1 °F - 48.9 °F 27% 29.86 in 10.0 mi South 9.2 mph - N/A   Clear
6:53 PM 84.9 °F - 52.0 °F 32% 29.86 in 10.0 mi South 5.8 mph - N/A   Clear
7:53 PM 78.1 °F - 54.0 °F 43% 29.88 in 10.0 mi WNW 6.9 mph - N/A   Clear
8:53 PM 73.9 °F - 55.0 °F 52% 29.91 in 10.0 mi WSW 3.5 mph - N/A   Clear
9:53 PM 71.1 °F - 55.0 °F 57% 29.92 in 10.0 mi Calm Calm - N/A   Clear
10:53 PM 69.1 °F - 54.0 °F 58% 29.94 in 10.0 mi WNW 6.9 mph - N/A   Clear
11:53 PM 71.1 °F - 54.0 °F 55% 29.94 in 10.0 mi NNW 9.2 mph - N/A   Clear